• en Belgique
  • Liste des pays
  • À 7 jours
  • Température de l'eau
  • Carte satellitaire
  • Carte météo
  • Widgets météo
  • user-avatar
    Se connecter

    Météo par heure à Ile de Korfu

    Ce jour, 21 Juin, Jeudi

    Heure Température Précipitation Vent Pression Humidité
    00:00 +24°C° 0 mm 3 m/s 759 mmHg 65%
    01:00 +22°C° 0 mm 3 m/s 759 mmHg 65%
    02:00 +22°C° 0 mm 3 m/s 759 mmHg 65%
    03:00 +22°C° 0 mm 3 m/s 759 mmHg 64%
    04:00 +21°C° 0 mm 3 m/s 758 mmHg 64%
    05:00 +24°C° 0 mm 2 m/s 758 mmHg 63%
    06:00 +25°C° 0 mm 2 m/s 758 mmHg 61%
    07:00 +27°C° 0 mm 2 m/s 758 mmHg 60%
    08:00 +28°C° 0 mm 2 m/s 758 mmHg 55%
    09:00 +30°C° 0 mm 2 m/s 758 mmHg 51%
    10:00 +31°C° 0 mm 2 m/s 758 mmHg 46%
    11:00 +31°C° 0 mm 2 m/s 758 mmHg 47%
    12:00 +31°C° 0 mm 2 m/s 758 mmHg 49%
    13:00 +31°C° 0 mm 2 m/s 758 mmHg 50%
    14:00 +30°C° 0,1 mm 2 m/s 757 mmHg 52%
    15:00 +30°C° 0,1 mm 2 m/s 757 mmHg 55%
    16:00 +30°C° 0,1 mm 2 m/s 757 mmHg 57%
    17:00 +28°C° 0,2 mm 2 m/s 757 mmHg 63%
    18:00 +27°C° 0,2 mm 2 m/s 757 mmHg 69%
    19:00 +26°C° 0,2 mm 1 m/s 757 mmHg 75%
    20:00 +25°C° 0,2 mm 1 m/s 757 mmHg 76%
    21:00 +25°C° 0,2 mm 1 m/s 757 mmHg 77%
    22:00 +24°C° 0,2 mm 1 m/s 757 mmHg 78%
    23:00 +24°C° 0 mm 1 m/s 757 mmHg 79%

    Demain, 22 Juin, Vendredi

    Heure Température Précipitation Vent Pression Humidité
    00:00 +23°C° 0 mm 1 m/s 757 mmHg 79%
    01:00 +23°C° 0 mm 1 m/s 757 mmHg 79%
    02:00 +23°C° 0,1 mm 1 m/s 757 mmHg 80%
    03:00 +21°C° 0,1 mm 2 m/s 757 mmHg 80%
    04:00 +21°C° 0,1 mm 2 m/s 757 mmHg 80%
    05:00 +23°C° 0 mm 1 m/s 757 mmHg 76%
    06:00 +25°C° 0 mm 1 m/s 757 mmHg 72%
    07:00 +26°C° 0 mm 1 m/s 757 mmHg 68%
    08:00 +27°C° 0 mm 1 m/s 757 mmHg 65%
    09:00 +28°C° 0 mm 2 m/s 757 mmHg 61%
    10:00 +29°C° 0 mm 2 m/s 757 mmHg 57%
    11:00 +30°C° 0,1 mm 2 m/s 757 mmHg 58%
    12:00 +30°C° 0,1 mm 3 m/s 756 mmHg 58%
    13:00 +30°C° 0,1 mm 3 m/s 756 mmHg 59%
    14:00 +30°C° 0,2 mm 3 m/s 756 mmHg 60%
    15:00 +29°C° 0,2 mm 3 m/s 755 mmHg 62%
    16:00 +29°C° 0,2 mm 3 m/s 755 mmHg 63%
    17:00 +28°C° 0,1 mm 3 m/s 755 mmHg 68%
    18:00 +27°C° 0,1 mm 2 m/s 755 mmHg 73%
    19:00 +25°C° 0,1 mm 2 m/s 755 mmHg 78%
    20:00 +25°C° 0 mm 2 m/s 756 mmHg 79%
    21:00 +24°C° 0 mm 2 m/s 756 mmHg 81%
    22:00 +23°C° 0 mm 2 m/s 756 mmHg 83%
    23:00 +23°C° 0 mm 2 m/s 756 mmHg 83%

    Après-demain, 23 Juin, Samedi

    Heure Température Précipitation Vent Pression Humidité
    00:00 +23°C° 0 mm 1 m/s 756 mmHg 83%
    01:00 +22°C° 0 mm 1 m/s 756 mmHg 83%
    02:00 +22°C° 0 mm 1 m/s 756 mmHg 81%
    03:00 +22°C° 0 mm 1 m/s 756 mmHg 80%
    04:00 +22°C° 0 mm 1 m/s 756 mmHg 79%
    05:00 +23°C° 0 mm 1 m/s 756 mmHg 75%
    06:00 +25°C° 0 mm 1 m/s 756 mmHg 71%
    07:00 +26°C° 0 mm 1 m/s 756 mmHg 67%
    08:00 +27°C° 0 mm 1 m/s 756 mmHg 62%
    09:00 +29°C° 0 mm 2 m/s 757 mmHg 57%
    10:00 +30°C° 0 mm 2 m/s 757 mmHg 53%
    11:00 +30°C° 0,1 mm 3 m/s 757 mmHg 56%
    12:00 +29°C° 0,1 mm 4 m/s 757 mmHg 60%
    13:00 +29°C° 0,1 mm 5 m/s 757 mmHg 64%
    14:00 +28°C° 0,1 mm 5 m/s 757 mmHg 66%
    15:00 +28°C° 0,1 mm 4 m/s 757 mmHg 69%
    16:00 +27°C° 0,1 mm 4 m/s 756 mmHg 72%
    17:00 +26°C° 0,1 mm 4 m/s 757 mmHg 74%
    18:00 +26°C° 0,1 mm 4 m/s 757 mmHg 76%
    19:00 +25°C° 0,1 mm 5 m/s 757 mmHg 79%
    20:00 +23°C° 0 mm 5 m/s 757 mmHg 80%
    21:00 +22°C° 0 mm 4 m/s 757 mmHg 81%
    22:00 +21°C° 0 mm 4 m/s 757 mmHg 82%
    23:00 +21°C° 0 mm 4 m/s 757 mmHg 81%

    24 Juin, Dimanche

    Heure Température Précipitation Vent Pression Humidité
    00:00 +21°C° 0 mm 4 m/s 757 mmHg 81%
    01:00 +20°C° 0 mm 4 m/s 757 mmHg 81%
    02:00 +20°C° 0 mm 4 m/s 757 mmHg 80%
    03:00 +20°C° 0 mm 3 m/s 757 mmHg 79%
    04:00 +19°C° 0 mm 3 m/s 757 mmHg 79%
    05:00 +21°C° 0 mm 3 m/s 757 mmHg 75%
    06:00 +22°C° 0 mm 3 m/s 757 mmHg 72%
    07:00 +24°C° 0 mm 3 m/s 757 mmHg 68%
    08:00 +26°C° 0 mm 2 m/s 757 mmHg 65%
    09:00 +27°C° 0 mm 2 m/s 757 mmHg 61%
    10:00 +28°C° 0 mm 2 m/s 757 mmHg 58%
    11:00 +28°C° 0,3 mm 2 m/s 757 mmHg 59%
    12:00 +28°C° 0,3 mm 2 m/s 757 mmHg 60%
    13:00 +29°C° 0,3 mm 2 m/s 757 mmHg 61%
    14:00 +29°C° 0,4 mm 1 m/s 757 mmHg 61%
    15:00 +28°C° 0,4 mm 1 m/s 757 mmHg 62%
    16:00 +28°C° 0,4 mm 1 m/s 756 mmHg 63%
    17:00 +27°C° 0,2 mm 1 m/s 756 mmHg 68%
    18:00 +26°C° 0,2 mm 1 m/s 756 mmHg 73%
    19:00 +25°C° 0,2 mm 2 m/s 757 mmHg 78%
    20:00 +24°C° 0,2 mm 2 m/s 757 mmHg 79%
    21:00 +23°C° 0,2 mm 2 m/s 757 mmHg 80%
    22:00 +22°C° 0,2 mm 3 m/s 757 mmHg 81%
    23:00 +21°C° 0,4 mm 3 m/s 757 mmHg 82%

    25 Juin, Lundi

    Heure Température Précipitation Vent Pression Humidité
    00:00 +21°C° 0,4 mm 3 m/s 757 mmHg 84%
    01:00 +21°C° 0,4 mm 3 m/s 756 mmHg 85%
    02:00 +20°C° 0,7 mm 4 m/s 756 mmHg 85%
    03:00 +20°C° 0,7 mm 4 m/s 756 mmHg 86%
    04:00 +20°C° 0,7 mm 4 m/s 756 mmHg 86%
    05:00 +21°C° 0,7 mm 4 m/s 756 mmHg 83%
    06:00 +22°C° 0,7 mm 5 m/s 756 mmHg 80%
    07:00 +23°C° 0,7 mm 5 m/s 756 mmHg 76%
    08:00 +25°C° 1 mm 5 m/s 756 mmHg 71%
    09:00 +26°C° 1 mm 6 m/s 756 mmHg 66%
    10:00 +28°C° 1 mm 6 m/s 756 mmHg 61%
    11:00 +27°C° 1,3 mm 6 m/s 755 mmHg 64%
    12:00 +27°C° 1,3 mm 6 m/s 755 mmHg 67%
    13:00 +27°C° 1,3 mm 6 m/s 755 mmHg 69%
    14:00 +26°C° 2 mm 5 m/s 755 mmHg 73%
    15:00 +25°C° 2 mm 4 m/s 755 mmHg 77%
    16:00 +24°C° 2 mm 3 m/s 755 mmHg 81%
    17:00 +24°C° 3 mm 3 m/s 755 mmHg 83%
    18:00 +22°C° 3 mm 4 m/s 754 mmHg 85%
    19:00 +22°C° 3 mm 5 m/s 754 mmHg 88%
    20:00 +21°C° 2,5 mm 6 m/s 754 mmHg 88%
    21:00 +21°C° 2,5 mm 6 m/s 754 mmHg 89%
    22:00 +21°C° 2,5 mm 7 m/s 754 mmHg 89%
    23:00 +21°C° 1,5 mm 7 m/s 754 mmHg 88%

    26 Juin, Mardi

    Heure Température Précipitation Vent Pression Humidité
    00:00 +20°C° 1,5 mm 7 m/s 754 mmHg 87%
    01:00 +20°C° 1,5 mm 7 m/s 754 mmHg 86%
    02:00 +20°C° 0,3 mm 7 m/s 754 mmHg 86%
    03:00 +20°C° 0,3 mm 6 m/s 753 mmHg 86%
    04:00 +20°C° 0,3 mm 6 m/s 753 mmHg 85%
    05:00 +20°C° 0,6 mm 6 m/s 753 mmHg 84%
    06:00 +21°C° 0,6 mm 6 m/s 753 mmHg 82%
    07:00 +22°C° 0,6 mm 5 m/s 753 mmHg 80%
    08:00 +23°C° 0,7 mm 5 m/s 754 mmHg 76%
    09:00 +25°C° 0,7 mm 4 m/s 754 mmHg 72%
    10:00 +26°C° 0,7 mm 4 m/s 754 mmHg 68%
    11:00 +26°C° 0,4 mm 3 m/s 754 mmHg 65%
    12:00 +27°C° 0,4 mm 3 m/s 754 mmHg 63%
    13:00 +27°C° 0,4 mm 2 m/s 753 mmHg 61%
    14:00 +27°C° 0,5 mm 2 m/s 753 mmHg 63%
    15:00 +27°C° 0,5 mm 2 m/s 753 mmHg 65%
    16:00 +26°C° 0,5 mm 1 m/s 753 mmHg 68%
    17:00 +25°C° 0,1 mm 2 m/s 753 mmHg 73%
    18:00 +24°C° 0,1 mm 2 m/s 754 mmHg 78%
    19:00 +23°C° 0,1 mm 2 m/s 754 mmHg 83%
    20:00 +23°C° 0,9 mm 2 m/s 754 mmHg 85%
    21:00 +21°C° 0,9 mm 3 m/s 754 mmHg 86%
    22:00 +20°C° 0,9 mm 3 m/s 754 mmHg 88%
    23:00 +20°C° 0,8 mm 3 m/s 754 mmHg 87%
    Voir plus